Location: Alfortville
(48.8058°N, 2.4204°E)
Time: 18:04:10
(UTC+00:00)

Meteor 1-19 Rocket - Pass Details

Date: 14 December 2023
Orbit: 806 x 928 km, 81.2° (Epoch: 04 March)

Event Time Altitude Azimuth Distance (km) Brightness Sun altitude
Exits shadow 05:26:12 - 348° (NNW) 3,422 7.1 -20.2°
Reaches altitude 10° 05:28:19 10° 350° (N) 2,621 6.5 -19.9°
Maximum altitude 05:34:19 79° 77° (ENE) 923 4.4 -18.9°
Drops below altitude 10° 05:40:07 10° 165° (SSE) 2,533 7.1 -18.0°
Sets 05:42:31 0° 166° (SSE) 3,449 7.8 -17.6°
